Findlay, OH

3:09 PM EST on January 20, 2017 (GMT -0500)
Findlay

Weather History for KFDY - October, 2011

Change the Weather History Date:

Sunday, October 30, 2011

  Actual Average Record
Temperature  
Mean Temperature 40 °F -  
Max Temperature 53 °F 57 °F 75 °F (1950)
Min Temperature 28 °F 37 °F 24 °F (1988)
Degree Days  
Heating Degree Days 25    
Moisture  
Dew Point 30 °F    
Average Humidity 82    
Maximum Humidity 100    
Minimum Humidity 45    
Precipitation  
Precipitation 0.00 in - - ()
Sea Level Pressure  
Sea Level Pressure 30.15 in    
Wind  
Wind Speed 2 mph (South)    
Max Wind Speed 14 mph    
Max Gust Speed -    
Visibility 5 miles    
Events Fog    
Averages and records for this station are not official NWS values.
T = Trace of Precipitation, MM = Missing Value Source: NWS Daily Summary

Daily Weather History Graph

Daily Weather History Graph

Search for Another Location

Airport or City:

Trip Planner

Search our weather history database for the weather conditions in past years. The results will help you decide how hot, cold, wet, or windy it might be!

Date:

Astronomy

Oct. 30, 2011 Rise Set
Actual Time 8:02 AM EDT 6:33 PM EDT
Civil Twilight 7:34 AM EDT 7:01 PM EDT
Nautical Twilight 7:02 AM EDT 7:33 PM EDT
Astronomical Twilight 6:30 AM EDT 8:05 PM EDT
Moon 12:22 PM EDT (10/30) 9:59 PM EDT (10/30)
Length of Visible Light 11h 27m
Length of Day
10h 30m
Waxing Crescent, 20% of the Moon is Illuminated
Oct 30
Waxing Crescent
Nov 2
First Quarter
Nov 10
Full
Nov 18
Last Quarter
Nov 25
New

Hourly Weather History & Observations

Time (EDT) Temp. Windchill Dew Point Humidity Pressure Visibility Wind Dir Wind Speed Gust Speed Precip Events Conditions
12:09 AM 30.2 °F - 30.2 °F 100% 30.12 in 1.8 mi Calm Calm - N/A   Clear
12:18 AM 32.0 °F - 30.2 °F 93% 30.12 in 0.8 mi Calm Calm - N/A   Clear
12:23 AM 32.0 °F - 30.2 °F 93% 30.12 in 2.0 mi Calm Calm - N/A   Clear
12:26 AM 32.0 °F - 30.2 °F 93% 30.12 in 1.8 mi Calm Calm - N/A   Partly Cloudy
12:29 AM 32.0 °F - 30.2 °F 93% 30.12 in 0.8 mi Calm Calm - N/A   Mist
12:44 AM 32.0 °F - 30.2 °F 93% 30.12 in 0.2 mi Calm Calm - N/A Fog Fog
12:53 AM 32.0 °F - 32.0 °F 100% 30.13 in 0.2 mi Calm Calm - N/A Fog Fog
1:05 AM 30.2 °F - 30.2 °F 100% 30.12 in 0.5 mi Calm Calm - N/A Fog Light Freezing Fog
1:14 AM 30.2 °F - 30.2 °F 100% 30.12 in 0.2 mi Calm Calm - N/A Fog Light Freezing Fog
1:34 AM 30.2 °F 26.7 °F 28.4 °F 93% 30.13 in 1.0 mi SW 3.5 mph - N/A   Mist
1:42 AM 28.4 °F - 28.4 °F 100% 30.13 in 2.0 mi Calm Calm - N/A   Partly Cloudy
1:50 AM 30.2 °F - 28.4 °F 93% 30.13 in 1.2 mi Calm Calm - N/A   Clear
1:53 AM 30.0 °F - 28.9 °F 96% 30.14 in 1.0 mi Calm Calm - N/A   Clear
2:04 AM 32.0 °F - 30.2 °F 93% 30.13 in 3.0 mi Calm Calm - N/A   Clear
2:27 AM 30.2 °F - 28.4 °F 93% 30.14 in 2.5 mi Calm Calm - N/A   Clear
2:53 AM 30.0 °F - 28.9 °F 96% 30.14 in 4.0 mi Calm Calm - N/A   Clear
3:07 AM 28.4 °F - 28.4 °F 100% 30.14 in 2.5 mi Calm Calm - N/A   Clear
3:16 AM 28.4 °F - 28.4 °F 100% 30.14 in 3.0 mi Calm Calm - N/A   Clear
3:21 AM 28.4 °F - 28.4 °F 100% 30.14 in 1.8 mi Calm Calm - N/A   Clear
3:36 AM 28.4 °F - 28.4 °F 100% 30.15 in 2.5 mi Calm Calm - N/A   Clear
3:53 AM 30.0 °F 26.5 °F 28.0 °F 92% 30.15 in 4.0 mi East 3.5 mph - N/A   Clear
4:53 AM 28.9 °F - 27.0 °F 92% 30.17 in 5.0 mi Calm Calm - N/A   Clear
5:53 AM 28.0 °F - 27.0 °F 96% 30.19 in 4.0 mi Calm Calm - N/A   Clear
6:53 AM 28.0 °F 24.2 °F 28.0 °F 100% 30.21 in 5.0 mi SSW 3.5 mph - N/A   Clear
8:53 AM 30.9 °F 25.2 °F 28.9 °F 92% 30.23 in 5.0 mi SSE 5.8 mph - N/A   Clear
9:53 AM 36.0 °F 32.1 °F 34.0 °F 93% 30.25 in 5.0 mi South 4.6 mph - N/A   Clear
10:53 AM 43.0 °F 39.5 °F 37.0 °F 80% 30.25 in 10.0 mi South 5.8 mph - N/A   Clear
11:53 AM 48.0 °F - 37.0 °F 66% 30.24 in 10.0 mi South 9.2 mph - N/A   Clear
12:53 PM 50.0 °F - 34.0 °F 54% 30.22 in 10.0 mi SSW 13.8 mph - N/A   Clear
1:53 PM 50.0 °F - 32.0 °F 50% 30.21 in 10.0 mi SSW 10.4 mph - N/A   Clear
2:53 PM 52.0 °F - 30.9 °F 45% 30.17 in 10.0 mi South 13.8 mph - N/A   Scattered Clouds
3:53 PM 52.0 °F - 32.0 °F 47% 30.16 in 10.0 mi South 13.8 mph - N/A   Overcast
5:53 PM 51.1 °F - 32.0 °F 48% 30.12 in 10.0 mi SSE 10.4 mph - N/A   Overcast
6:53 PM 48.0 °F - 30.9 °F 52% 30.13 in 10.0 mi SSE 8.1 mph - N/A   Mostly Cloudy
7:53 PM 46.9 °F - 32.0 °F 56% 30.13 in 10.0 mi SE 9.2 mph - N/A   Mostly Cloudy
8:53 PM 48.0 °F - 32.0 °F 54% 30.13 in 10.0 mi SSE 11.5 mph - N/A   Overcast
9:53 PM 46.9 °F - 30.0 °F 52% 30.13 in 10.0 mi South 9.2 mph - N/A   Overcast
10:53 PM 46.0 °F 43.9 °F 32.0 °F 58% 30.15 in 10.0 mi SSW 4.6 mph - 0.00 in   Overcast
11:53 PM 46.0 °F - 32.0 °F 58% 30.14 in 10.0 mi North - - 0.00 in   Overcast